Regional Weather Roundup
Issued by NWS

Home | Current Version | Previous Version | Text Only | Print | Product List | Glossary Off
Versions: 1 2 3 4 5 6 7 8 9 10 11 12 13 14 15 16 17 18 19 20 21 22 23 24 25 26 27 28 29 30 31 32 33 34 35 36 37 38 39 40 41 42 43 44 45 46 47 48 49 50

000
ASUS44 KEWX 171803
RWRTX
SOUTH TEXAS REGIONAL WEATHER ROUNDUP
NATIONAL WEATHER SERVICE AUSTIN/SAN ANTONIO TX
1200 PM CST TUE JAN 17 2017

NOTE: "FAIR" INDICATED FEW OR NO CLOUDS BELOW 12,000 FEET WITH NO
SIGNIFICANT WEATHER AND/OR OBSTRUCTIONS TO VISIBILITY.

* - THESE STATIONS ARE NOT NWS OR FAA STATIONS...AND ARE NOT SUBJECT
    TO NWS AND FAA QUALITY CONTROL.

TXZ171-172-183>190-171900-
TEXAS HILL COUNTRY AND EDWARDS PLATEAU

CITY           SKY/WX    TMP DP  RH WIND       PRES   REMARKS
JUNCTION       LGT RAIN  49  41  74 NE14      30.11F WCI  44
6HR MIN TEMP:  48; 6HR MAX TEMP:  53; 6HR PCP:  0.01;

*LLANO         CLOUDY    50  41  71 NE9       30.21F WCI  46
BURNET         LGT RAIN  47  43  86 NE10G20   30.16F WCI  42
6HR MIN TEMP:  47; 6HR MAX TEMP:  53; 6HR PCP:  0.02;

*HORSESHOE BAY CLOUDY    49  46  90 NE6       30.17F WCI  46
6HR MIN TEMP:  48; 6HR MAX TEMP:  55; 6HR PCP:  0.01;

*KERRVILLE     CLOUDY    51  47  87 E3        30.10F
6HR MIN TEMP:  51; 6HR MAX TEMP:  56; 6HR PCP:  0.09;

*FREDERICKSBRG CLOUDY    52  41  66 E13       30.10F
6HR MIN TEMP:  50; 6HR MAX TEMP:  54;

*ROCKSPRINGS   CLOUDY    48  46  93 E13       30.07F WCI  43
*BOERNE STAGE  CLOUDY    50  45  81 NE10G17   30.11F WCI  46
*CASTROVILLE   CLOUDY    57  48  71 NE16      30.08F
HONDO          CLOUDY    57  51  80 NE14      30.05F
6HR MIN TEMP:  57; 6HR MAX TEMP:  63; 6HR PCP:  0.04;

*UVALDE        RAIN      56  51  82 E17G25    30.04F
6HR MIN TEMP:  56; 6HR MAX TEMP:  62;

DEL RIO        HVY RAIN  56  54  93 NW9       30.04F FOG
6HR MIN TEMP:  56; 6HR MAX TEMP:  60; 6HR PCP:  0.16;

LAUGHLIN AFB   NOT AVBL
CARRIZO SPRGS  CLOUDY    61  59  94 E9        30.00F
*EAGLE PASS    CLOUDY    59  57  94 MISG      30.03S FOG
$$

TXZ173-191>194-202-209-217>225-228-171900-
CENTRAL AND SOUTH CENTRAL TEXAS

CITY           SKY/WX    TMP DP  RH WIND       PRES   REMARKS
GEORGETOWN     CLOUDY    48  43  81 N8        30.19F WCI  45
AUSTIN/BERGSTM CLOUDY    52  48  86 N16       30.15F
6HR MIN TEMP:  52; 6HR MAX TEMP:  57; 6HR PCP:  0.21;

AUSTIN/MABRY   CLOUDY    50  46  86 VRB6      30.17S WCI  48
6HR MIN TEMP:  50; 6HR MAX TEMP:  57; 6HR PCP:  0.23;

*AUSTIN/EXEC   CLOUDY    50  48  93 N13       30.17S WCI  45
*LAGO VISTA    CLOUDY    47  46  95 NE12G17   30.15F WCI  42
6HR MIN TEMP:  47; 6HR MAX TEMP:  53; 6HR PCP:  0.15;

SAN MARCOS     CLOUDY    52  48  87 NE14      30.15S
NEW BRAUNFELS  CLOUDY    53  49  86 NE17G24   30.11F
6HR MIN TEMP:  52; 6HR MAX TEMP:  58; 6HR PCP:  0.22;

RANDOLPH AFB   NOT AVBL
PT SAN ANTONIO NOT AVBL
SAN ANTONIO    CLOUDY    55  49  80 NE16      30.10F
6HR MIN TEMP:  54; 6HR MAX TEMP:  58; 6HR PCP: TRACE;

STINSON FIELD  CLOUDY    57  49  74 NE17G24   30.08F
6HR MIN TEMP:  56; 6HR MAX TEMP:  61; 6HR PCP:  0.02;

*PLEASANTON    CLOUDY    56  51  85 NE12      30.07F
*LA GRANGE     DRIZZLE   56  55  95 N7        30.12S
6HR MIN TEMP:  56; 6HR MAX TEMP:  58; 6HR PCP:  0.43;

*GIDDINGS      DRIZZLE   53  52  95 NE7       30.15F
6HR MIN TEMP:  52; 6HR MAX TEMP:  54;

*GONZALES      LGT RAIN  56  55  95 NE12      30.11F
6HR MIN TEMP:  56; 6HR MAX TEMP:  58; 6HR PCP:  0.02;

$$

TXZ163>164-176>182-195>201-210>213-226-227-235-171900-
SOUTHEAST TEXAS

CITY           SKY/WX    TMP DP  RH WIND       PRES   REMARKS
COLLEGE STN    LGT RAIN  54  52  93 NE13      30.15F
6HR MIN TEMP:  54; 6HR MAX TEMP:  57; 6HR PCP:  0.27;

*BRYAN         LGT RAIN  53  53 100 NE10      30.17F
6HR MIN TEMP:  53; 6HR MAX TEMP:  55;

*CALDWELL      NOT AVBL
*CROCKETT      LGT RAIN  50  50 100 N5        30.20F WCI  48
*BRENHAM       RAIN      55  55  97 NE5       30.15F
6HR MIN TEMP:  55; 6HR MAX TEMP:  58; 6HR PCP:  0.21;

HUNTSVILLE     RAIN      54  52  93 VRB3      30.17S FOG
6HR MIN TEMP:  54; 6HR MAX TEMP:  56; 6HR PCP:  0.51;

CONROE         CLOUDY    57  55  93 N9G20     30.13F
6HR MIN TEMP:  56; 6HR MAX TEMP:  58; 6HR PCP:  0.27;

HOUSTON BUSH   HVY RAIN  60  58  92 N10       30.11F FOG
6HR MIN TEMP:  59; 6HR MAX TEMP:  72; 6HR PCP:  0.08;

HOUSTON HOBBY  CLOUDY    66  62  87 N13       30.08F
6HR MIN TEMP:  66; 6HR MAX TEMP:  75; 6HR PCP:  0.08;

*HOUSTON SW AP CLOUDY    75  68  80 S6        30.08F
6HR MIN TEMP:  70; 6HR MAX TEMP:  75; 6HR PCP:  0.03;

PEARLAND       CLOUDY    77  68  73 S13       30.09F
6HR MIN TEMP:  72; 6HR MAX TEMP:  77;

HOUSTON HOOKS  CLOUDY    59  57  93 N9        30.12F
6HR MIN TEMP:  58; 6HR MAX TEMP:  72;

ELLINGTON FLD  CLOUDY    77  70  78 S16       30.09F
SUGAR LAND     LGT RAIN  61  61 100 N13       30.09F
6HR MIN TEMP:  61; 6HR MAX TEMP:  72; 6HR PCP:  0.06;

*HOUSTON EXEC  CLOUDY    59  57  94 N14       30.12F FOG
*CLEVELAND MUN LGT RAIN  59  57  92 N6        30.14S
6HR MIN TEMP:  57; 6HR MAX TEMP:  60; 6HR PCP:  0.36;

*WHARTON       LGT RAIN  61  60  94 N8        30.09F
*COLUMBUS      CLOUDY    56  55  95 N9        30.11F
6HR MIN TEMP:  56; 6HR MAX TEMP:  61; 6HR PCP:  0.38;

*EAGLE LAKE    CLOUDY    60  60  99 NE13G18   30.10F
6HR MIN TEMP:  60; 6HR MAX TEMP:  65; 6HR PCP:  0.30;

$$

TXZ214>216-236>238-171900-
THE UPPER TEXAS COAST

CITY           SKY/WX    TMP DP  RH WIND       PRES   REMARKS
*ORANGE        CLOUDY    73  73 100 S10G17    30.12F
PORT ARTHUR    CLOUDY    77  68  73 S15       30.09F
6HR MIN TEMP:  69; 6HR MAX TEMP:  77;

GALVESTON      CLOUDY    73  70  90 SE10      30.09F
6HR MIN TEMP:  68; 6HR MAX TEMP:  73;

ANGLETON       LGT RAIN  78  69  73 S21       30.08F
6HR MIN TEMP:  70; 6HR MAX TEMP:  79; 6HR PCP: TRACE;

*BAY CITY      CLOUDY    76  70  82 S14G20    30.08S
PALACIOS       CLOUDY    75  68  78 SE17G24   30.05F
6HR MIN TEMP:  69; 6HR MAX TEMP:  76;

$$

TXZ229>234-239>247-171900-
TEXAS COASTAL BEND AND RIO GRANDE PLAINS

CITY           SKY/WX    TMP DP  RH WIND       PRES   REMARKS
VICTORIA       CLOUDY    63  60  90 N10       30.07F
6HR MIN TEMP:  61; 6HR MAX TEMP:  72; 6HR PCP: TRACE;

*BEEVILLE      CLOUDY    65  65 100 N10       30.04F
6HR MIN TEMP:  60; 6HR MAX TEMP:  74;

ROCKPORT       RAIN      73  69  87 SE6       30.04F FOG
6HR MIN TEMP:  69; 6HR MAX TEMP:  76; 6HR PCP:  0.02;

*PORT ARANSAS  CLOUDY    70  69  96 SE7       30.03F FOG
6HR MIN TEMP:  66; 6HR MAX TEMP:  71; 6HR PCP:  0.06;

*PORT LAVACA   CLOUDY    77  71  82 S15G22    30.06F
6HR MIN TEMP:  70; 6HR MAX TEMP:  78;

*INGLESIDE     PTSUNNY   76  71  84 SE10G18   30.02F
CORPUS CHRISTI CLOUDY    77  71  82 SE22      30.00F
6HR MIN TEMP:  69; 6HR MAX TEMP:  78;

CORPUS NAS     PTSUNNY   75  70  84 SE17      30.02F
*ROBSTOWN      CLOUDY    77  72  83 SE14      30.01F
6HR MIN TEMP:  70; 6HR MAX TEMP:  79;

ALICE          CLOUDY    77  68  73 SE10      30.00F
6HR MIN TEMP:  67; 6HR MAX TEMP:  78;

KINGSVILLE NAS LGT RAIN  80  71  74 SE16      29.99F
6HR MIN TEMP:  68; 6HR MAX TEMP:  80; 6HR PCP: TRACE;

COTULLA        CLOUDY    63  57  81 NE17      30.01F
6HR MIN TEMP:  63; 6HR MAX TEMP:  67; 6HR PCP: TRACE;

*FAITH RANCH   CLOUDY    72  66  83 MISG      29.98F
LAREDO         CLOUDY    74  66  76 SE17      29.96F
6HR MIN TEMP:  66; 6HR MAX TEMP:  74; 6HR PCP:  0.01;

$$

TXZ248>255-171900-
DEEP SOUTH TEXAS

CITY           SKY/WX    TMP DP  RH WIND       PRES   REMARKS
BROWNSVILLE    LGT RAIN  74  72  93 SE14      30.00S
6HR MIN TEMP:  68; 6HR MAX TEMP:  80; 6HR PCP:  0.01;

PORT ISABEL    CLOUDY    76  72  87 E13       29.98F
6HR MIN TEMP:  70; 6HR MAX TEMP:  77; 6HR PCP:  0.01;

*SOUTH PADRE   NOT AVBL
HARLINGEN      MOSUNNY   81  72  74 S18G24    29.97F
6HR MIN TEMP:  69; 6HR MAX TEMP:  81; 6HR PCP:  0.01;

*HEBBRONVILLE  CLOUDY    74  64  71 SE14G20   29.98F
6HR MIN TEMP:  22; 6HR MAX TEMP:  84;

MCALLEN        CLOUDY    82  68  62 SE16G25   29.96F
6HR MIN


USA.gov is the U.S. government's official web portal to all federal, state and local government web resources and services.